[[{"header":{"parameterUnit":"m.s-1","parameterCategory":2,"la1":30.2991,"la2":30.254,"lo1":-89.0895,"lo2":-89.0444,"dy":0.0017,"dx":0.0017,"nx":28,"ny":28,"refTime":"2025-01-28T09:00:00:Z","depth":"0","parameterNumber":2,"parameterNumberName":"U-component_of_CURRENTS"},"data":[0,0,0,0,0,0,0,0,0,0,0,0,0,0,0,0,0,0,0,0,0,0,0,0,0,0,0,0,0,0,0,0,0,0,0,0,0,0,0,0,0,0,0,0,0,0,0,0,0,0,0,0,0,0,0,0,0,0,0.2367,0.2366,0,0.2328,0.2327,0.2327,0.2292,0.2291,0.2291,0.2291,0.2285,0.2285,0.2285,0,0,0,0,0,0,0,0,0,0,0,0,0,0.2491,0.2488,0.2367,0.2366,0.2366,0.2328,0.2327,0.2327,0.2292,0.2291,0.2291,0.2291,0.2285,0.2285,0.2285,0,0,0,0,0,0,0,0,0,0,0,0,0,0.2442,0.2487,0.2367,0.2344,0.2342,0.2328,0.2327,0.2326,0.2292,0.2291,0.2291,0.229,0.2284,0.2285,0.2285,0.2298,0,0,0.2286,0.2286,0,0,0,0,0,0,0,0,0.2445,0.2438,0.2348,0.2346,0.2343,0.2314,0.2369,0.2319,0.2292,0.2311,0.2291,0.229,0.2298,0.2297,0.229,0.2298,0.2298,0.2286,0.2286,0.2286,0.2286,0,0,0,0,0,0,0,0.2448,0.244,0.2351,0.2347,0.2344,0.2363,0.2355,0.2359,0.2309,0.2309,0.2306,0.2303,0.2297,0.229,0.229,0.2298,0.2286,0.2286,0.2286,0.2286,0.2343,0.2344,0,0,0,0,0,0,0.2449,0.2442,0.2352,0.235,0.2394,0.2361,0.2352,0.2324,0.2308,0.2304,0.2303,0.2301,0.229,0.229,0.229,0.2326,0.2286,0.2287,0.2287,0.2342,0.2343,0.2345,0,0,0,0,0,0,0.2452,0.2441,0.2354,0.2397,0.2387,0.2359,0.2328,0.2323,0.2316,0.2303,0.23,0.2301,0.2289,0.2289,0.2296,0.2325,0.2287,0.2287,0.234,0.2342,0.2344,0.2386,0,0,0,0,0,0,0.2455,0.2441,0.2431,0.2396,0.2385,0.2347,0.2329,0.2323,0.2315,0.2312,0.23,0.2299,0.2289,0.2296,0.2296,0.2325,0.2287,0.2338,0.2341,0.2343,0.2383,0.2389,0.2395,0,0,0,0,0,0.2459,0.244,0.243,0.242,0.2367,0.2348,0.2344,0.2323,0.2315,0.2314,0.2308,0.2299,0.2313,0.2297,0.2297,0.2326,0.2337,0.234,0.2343,0.238,0.2388,0.2394,0,0,0,0,0,0,0.2498,0.2433,0.2422,0.2387,0.2373,0.2342,0.2339,0.2328,0.2321,0.232,0.2308,0.2307,0.2328,0.2321,0.2304,0.2352,0.2327,0.233,0.2356,0.2363,0.2368,0.2364,0.2287,0,0,0,0,0,0.25,0.2464,0.2424,0.2405,0.2392,0.237,0.2363,0.2348,0.2334,0.2329,0.2322,0.2325,0.2342,0.2345,0.2352,0.2372,0.2386,0.2394,0.24,0.2405,0.2403,0.2462,0.2473,0.2354,0.2354,0.2354,0,0,0.2517,0.2475,0.246,0.2411,0.2396,0.2384,0.2363,0.235,0.2353,0.2332,0.2337,0.2343,0.2352,0.2375,0.2385,0.2372,0.2448,0.2409,0.2413,0.2408,0.2466,0.2478,0.2488,0.2356,0.2356,0.2356,0,0,0.2521,0.2489,0.2457,0.2442,0.2412,0.2402,0.2399,0.237,0.2368,0.2373,0.2371,0.2388,0.2398,0.2413,0.2424,0.2467,0.2477,0.2478,0.2502,0.2559,0.2569,0.2579,0.2615,0.2627,0.248,0.248,0.248,0,0.2547,0.2491,0.2455,0.2427,0.2423,0.241,0.2399,0.2401,0.2384,0.2395,0.238,0.2422,0.2419,0.2471,0.2479,0.248,0.2509,0.2473,0.2567,0.2576,0.2585,0.2621,0.2633,0.2482,0.2482,0.2482,0.2481,0,0.252,0.249,0.2477,0.2433,0.2432,0.2422,0.2418,0.2425,0.2427,0.2431,0.2473,0.2476,0.2502,0.2514,0.2503,0.2572,0.2572,0.2569,0.2548,0.26,0.2634,0.2646,0.2486,0.2485,0.2484,0.2483,0,0,0.2525,0.2466,0.246,0.2448,0.2432,0.2426,0.245,0.2463,0.2488,0.2495,0.2537,0.256,0.2567,0.258,0.2587,0.2627,0.2703,0.2621,0.2623,0.2655,0.2828,0.2704,0.2706,0.2726,0.2728,0.273,0.2828,0,0.2514,0.246,0.2443,0.2436,0.2416,0.2432,0.246,0.2483,0.2508,0.2548,0.2582,0.262,0.2596,0.2617,0.2655,0.2694,0.2738,0.2676,0.2775,0.2777,0.2659,0.2716,0.2515,0.2574,0.284,0.2842,0.2844,0,0.2481,0.2447,0.2419,0.2425,0.2422,0.2431,0.2478,0.2503,0.257,0.2595,0.2647,0.2674,0.2736,0.2708,0.2805,0.2772,0.2799,0.2825,0.283,0.2704,0.2676,0.2566,0.2587,0.2508,0.2863,0.2861,0.286,0,0.2466,0.2439,0.2415,0.2412,0.2415,0.2429,0.2454,0.2512,0.2549,0.2632,0.2672,0.2748,0.2795,0.285,0.2878,0.286,0.2982,0.2968,0.2888,0.288,0.2718,0.269,0.2666,0.3046,0.3046,0.3045,0.3045,0,0.2439,0.2422,0.2405,0.2382,0.2396,0.2416,0.2457,0.2496,0.2574,0.2627,0.2693,0.2749,0.2835,0.2903,0.2922,0.2933,0.3022,0.2898,0.29,0.2725,0.2698,0.2628,0.2618,0.3049,0.3048,0.3047,0.3047,0,0.2405,0.2389,0.2364,0.2364,0.2374,0.2384,0.2445,0.2482,0.2558,0.2636,0.2668,0.2779,0.2853,0.2918,0.3015,0.2976,0.2903,0.2992,0.2763,0.2734,0.2533,0.2533,0.2427,0.2377,0.2913,0.2911,0.2909,0,0.2375,0.2347,0.2341,0.234,0.2333,0.236,0.2387,0.2462,0.2505,0.2639,0.2673,0.2781,0.2821,0.2903,0.2855,0.2865,0.2832,0.2696,0.2606,0.2493,0.2499,0.2418,0.2381,0.2426,0.242,0.2416,0.2412,0,0.2322,0.2318,0.2305,0.2302,0.2313,0.233,0.2372,0.2405,0.2503,0.257,0.2658,0.2703,0.2732,0.2631,0.262,0.2601,0.2514,0.2594,0.2552,0.2167,0.2006,0.1968,0.2394,0.2369,0.2373,0.2377,0.2379,0.2381,0.2299,0.2286,0.2279,0.2275,0.2289,0.2295,0.2294,0.2346,0.2404,0.246,0.256,0.2543,0.2442,0.2365,0.2341,0.2125,0.2211,0.2027,0.2059,0.2004,0.1869,0.2179,0.2102,0.2105,0.2107,0.2109,0.2111,0,0.2268,0.2259,0.2257,0.2246,0.2235,0.2255,0.2279,0.2259,0.2284,0.2317,0.2353,0.2171,0.2024,0.1936,0.1698,0.1596,0.1545,0.1571,0.1431,0.1445,0.1777,0.1665,0.1396,0.1396,0.1396,0.1396,0.1396,0.1396,0.2251,0.2232,0.2224,0.2192,0.2183,0.2137,0.2128,0.2105,0.2097,0.1991,0.1856,0.1786,0.1636,0.1434,0.1249,0.1233,0.1183,0.1059,0.1189,0.1426,0.1471,0.1515,0.1405,0.1087,0.1087,0.0726,0.0723,0.0721]},{"header":{"parameterUnit":"m.s-1","parameterCategory":2,"la1":30.2991,"la2":30.254,"lo1":-89.0895,"lo2":-89.0444,"dy":0.0017,"dx":0.0017,"nx":28,"ny":28,"refTime":"2025-01-28T09:00:00:Z","depth":"0","parameterNumber":3,"parameterNumberName":"V-component_of_CURRENTS"},"data":[0,0,0,0,0,0,0,0,0,0,0,0,0,0,0,0,0,0,0,0,0,0,0,0,0,0,0,0,0,0,0,0,0,0,0,0,0,0,0,0,0,0,0,0,0,0,0,0,0,0,0,0,0,0,0,0,0,0,-0.0064,-0.0064,0,-0.0048,-0.0048,-0.0048,-0.005,-0.0051,-0.0051,-0.0051,-0.006,-0.006,-0.006,0,0,0,0,0,0,0,0,0,0,0,0,0,-0.0103,-0.0102,-0.0064,-0.0064,-0.0064,-0.0048,-0.0048,-0.0048,-0.005,-0.0051,-0.0051,-0.0051,-0.006,-0.006,-0.006,0,0,0,0,0,0,0,0,0,0,0,0,0,-0.0087,-0.0102,-0.0064,-0.0062,-0.0062,-0.0048,-0.0048,-0.0048,-0.005,-0.0051,-0.0051,-0.0051,-0.006,-0.006,-0.006,-0.0055,0,0,-0.0061,-0.0061,0,0,0,0,0,0,0,0,-0.0088,-0.0086,-0.0063,-0.0062,-0.0062,-0.0051,-0.0065,-0.0052,-0.005,-0.0055,-0.0051,-0.0051,-0.0059,-0.0059,-0.0056,-0.0056,-0.0056,-0.0061,-0.0061,-0.0061,-0.0061,0,0,0,0,0,0,0,-0.0089,-0.0087,-0.0059,-0.0062,-0.0062,-0.0065,-0.0063,-0.0063,-0.0057,-0.0055,-0.0055,-0.0052,-0.0059,-0.0056,-0.0056,-0.0056,-0.0061,-0.0061,-0.0061,-0.0061,-0.0056,-0.0056,0,0,0,0,0,0,-0.0089,-0.0087,-0.0059,-0.0058,-0.0075,-0.0064,-0.0061,-0.0055,-0.0056,-0.0056,-0.0052,-0.0052,-0.0056,-0.0056,-0.0057,-0.004,-0.0061,-0.0061,-0.0061,-0.0057,-0.0056,-0.0056,0,0,0,0,0,0,-0.009,-0.0086,-0.006,-0.0072,-0.0069,-0.0062,-0.0055,-0.0054,-0.0051,-0.0053,-0.0054,-0.0049,-0.0056,-0.0057,-0.0054,-0.0041,-0.0061,-0.0061,-0.0057,-0.0057,-0.0056,-0.0015,0,0,0,0,0,0,-0.0091,-0.0087,-0.0082,-0.0072,-0.0068,-0.0046,-0.0055,-0.0054,-0.0048,-0.0048,-0.0051,-0.0052,-0.0056,-0.0054,-0.0054,-0.0042,-0.0061,-0.0057,-0.0057,-0.0056,-0.0016,-0.0013,-0.001,0,0,0,0,0,-0.0092,-0.0081,-0.0082,-0.0078,-0.0062,-0.0045,-0.0044,-0.0041,-0.0048,-0.004,-0.0045,-0.0052,-0.0052,-0.0053,-0.0054,-0.0041,-0.0057,-0.0057,-0.0056,-0.0018,-0.0014,-0.001,0,0,0,0,0,0,-0.0099,-0.008,-0.0081,-0.0066,-0.0055,-0.0045,-0.0038,-0.0039,-0.0037,-0.0038,-0.0047,-0.0048,-0.0041,-0.005,-0.0051,-0.0041,-0.0057,-0.0057,-0.0027,-0.0024,-0.0021,-0.0008,-0.0061,0,0,0,0,0,-0.0098,-0.0083,-0.007,-0.0059,-0.0052,-0.0046,-0.004,-0.0037,-0.0033,-0.0032,-0.0035,-0.004,-0.0039,-0.0038,-0.004,-0.0033,-0.0023,-0.0028,-0.0024,-0.0022,-0.0013,0.0015,0.0022,-0.0055,-0.0055,-0.0055,0,0,-0.01,-0.0086,-0.0079,-0.0059,-0.0051,-0.003,-0.0043,-0.0029,-0.0014,-0.0034,-0.0019,-0.0028,-0.0035,-0.0026,-0.0024,-0.0031,0.0006,-0.0021,-0.0019,-0.0011,0.0016,0.0024,0.0031,-0.0055,-0.0055,-0.0055,0,0,-0.0084,-0.008,-0.0058,-0.0045,-0.0027,-0.0021,-0.0016,-0.0004,-0.0002,0.0009,-0.0001,0.0,-0.0003,0.0001,0.0,0.0018,0.0021,0.001,0.0039,0.0065,0.0073,0.0079,0.0108,0.0116,0.0012,0.0012,0.0012,0,-0.0087,-0.0054,-0.0051,-0.0024,-0.0008,-0.0014,0.0014,0.0018,0.0027,0.0036,0.0018,0.0027,0.0014,0.0038,0.0037,0.0028,0.0042,0.0028,0.0072,0.0078,0.0084,0.0112,0.0121,0.0014,0.0014,0.0014,0.0014,0,-0.0047,-0.0026,-0.0011,0.0023,0.0037,0.0059,0.0068,0.0077,0.0073,0.008,0.0096,0.008,0.0089,0.0078,0.006,0.0093,0.009,0.0074,0.0067,0.0095,0.0122,0.013,0.0017,0.0016,0.0016,0.0015,0,0,-0.0038,0.0008,0.0014,0.004,0.0066,0.0085,0.0106,0.0134,0.0158,0.015,0.0186,0.0168,0.0159,0.0157,0.0138,0.0148,0.0192,0.0126,0.0126,0.0164,0.0258,0.0253,0.0262,0.0185,0.0187,0.0188,0.0263,0,-0.0006,0.0053,0.0067,0.0118,0.015,0.0153,0.0178,0.0197,0.0206,0.0235,0.0221,0.0244,0.0191,0.0199,0.02,0.0197,0.0215,0.0173,0.0218,0.0219,0.022,0.0272,0.027,0.0337,0.0272,0.0273,0.0274,0,0.0036,0.0072,0.0129,0.0178,0.0193,0.0218,0.0263,0.0287,0.0316,0.0324,0.0337,0.0331,0.0345,0.0295,0.0312,0.0289,0.0278,0.0269,0.0271,0.026,0.0231,0.0297,0.0355,0.0308,0.0287,0.0286,0.0285,0,0.0059,0.0117,0.0165,0.0182,0.0233,0.0257,0.0283,0.0316,0.0354,0.039,0.0429,0.0429,0.0459,0.0433,0.0404,0.0366,0.0432,0.038,0.0371,0.037,0.0374,0.0371,0.0401,0.0405,0.0405,0.0405,0.0405,0,0.01,0.0138,0.0179,0.0209,0.027,0.029,0.0357,0.0378,0.043,0.0502,0.0482,0.0548,0.0497,0.0521,0.0461,0.0458,0.0483,0.0397,0.0397,0.0387,0.0385,0.0347,0.0313,0.0408,0.0407,0.0407,0.0406,0,0.0127,0.0152,0.0212,0.0266,0.0287,0.0331,0.0409,0.046,0.05,0.0597,0.0619,0.0666,0.0704,0.0653,0.0642,0.056,0.0512,0.0527,0.052,0.0517,0.0426,0.0395,0.0436,0.0403,0.052,0.0521,0.0521,0,0.0151,0.0184,0.0251,0.0293,0.0321,0.0388,0.0441,0.0491,0.0556,0.0681,0.0741,0.0812,0.0886,0.0865,0.0743,0.0665,0.0587,0.0587,0.0499,0.0445,0.041,0.0383,0.0349,0.0526,0.0526,0.0527,0.0527,0,0.0198,0.0215,0.0263,0.0341,0.0402,0.048,0.056,0.0621,0.0704,0.0805,0.0952,0.1026,0.1019,0.0965,0.0842,0.0755,0.0546,0.059,0.0544,0.0434,0.0398,0.0359,0.0452,0.053,0.0529,0.0529,0.0529,0.0529,0.0229,0.0267,0.0324,0.0399,0.0471,0.0565,0.0636,0.0742,0.0871,0.1039,0.1102,0.1243,0.1131,0.0974,0.0853,0.0608,0.0597,0.0511,0.0485,0.0469,0.0413,0.0512,0.0575,0.0575,0.0575,0.0575,0.0575,0,0.0271,0.0312,0.0381,0.0471,0.0552,0.0583,0.0713,0.0802,0.0968,0.1149,0.1295,0.1323,0.1194,0.0996,0.0682,0.0529,0.0441,0.0444,0.0401,0.0373,0.048,0.0453,0.048,0.048,0.048,0.048,0.0481,0.0481,0.0299,0.0361,0.0391,0.0519,0.0586,0.0698,0.0774,0.0924,0.1069,0.1293,0.1391,0.145,0.1299,0.0854,0.055,0.0459,0.0342,0.0326,0.0277,0.0337,0.0341,0.0344,0.0311,0.0309,0.0308,0.017,0.0168,0.0167]}],[{"header":{"parameterUnit":"m.s-1","parameterCategory":2,"la1":30.2991,"la2":30.254,"lo1":-89.0895,"lo2":-89.0444,"dy":0.0017,"dx":0.0017,"nx":28,"ny":28,"refTime":"2025-01-28T09:00:00:Z","depth":"2","parameterNumber":2,"parameterNumberName":"U-component_of_CURRENTS"},"data":[0,0,0,0,0,0,0,0,0,0,0,0,0,0,0,0,0,0,0,0,0,0,0,0,0,0,0,0,0,0,0,0,0,0,0,0,0,0,0,0,0,0,0,0,0,0,0,0,0,0,0,0,0,0,0,0,0,0,0.1569,0.1569,0,0.1566,0.1566,0.1565,0.1556,0.1556,0.1556,0.1556,0.1548,0.1548,0.1547,0,0,0,0,0,0,0,0,0,0,0,0,0,0.1582,0.1581,0.1569,0.1569,0.157,0.1566,0.1566,0.1565,0.1556,0.1556,0.1556,0.1556,0.1548,0.1548,0.1547,0,0,0,0,0,0,0,0,0,0,0,0,0,0.1574,0.1581,0.1569,0.1566,0.1566,0.1566,0.1566,0.1565,0.1556,0.1556,0.1556,0.1556,0.1548,0.1548,0.1547,0.1544,0,0,0.1546,0.1546,0,0,0,0,0,0,0,0,0.1575,0.1574,0.1567,0.1567,0.1567,0.1564,0.1567,0.1559,0.1556,0.1557,0.1556,0.1556,0.1555,0.1554,0.1549,0.1543,0.1543,0.1546,0.1546,0.1546,0.1546,0,0,0,0,0,0,0,0.1575,0.1574,0.1565,0.1567,0.1567,0.1571,0.1569,0.1566,0.1553,0.1557,0.1557,0.1561,0.1554,0.1549,0.1549,0.1543,0.1546,0.1546,0.1546,0.1545,0.1592,0.1594,0,0,0,0,0,0,0.158,0.1574,0.1565,0.1565,0.1574,0.1571,0.1569,0.1562,0.1553,0.1553,0.1561,0.156,0.155,0.1549,0.1548,0.1587,0.1546,0.1545,0.1545,0.1591,0.1593,0.1594,0,0,0,0,0,0,0.1581,0.1579,0.1565,0.1573,0.1571,0.157,0.1563,0.1562,0.1567,0.1557,0.1556,0.1567,0.155,0.1549,0.1564,0.1585,0.1545,0.1545,0.1589,0.1591,0.1593,0.1636,0,0,0,0,0,0,0.1581,0.1579,0.158,0.1573,0.1571,0.1573,0.1563,0.1562,0.157,0.157,0.1562,0.1561,0.155,0.1564,0.1563,0.1584,0.1545,0.1587,0.159,0.1593,0.1633,0.164,0.1645,0,0,0,0,0,0.1581,0.158,0.1579,0.1579,0.1571,0.1573,0.1573,0.1571,0.157,0.1574,0.1578,0.1562,0.1581,0.1565,0.1563,0.1584,0.1586,0.1589,0.1592,0.163,0.1638,0.1645,0,0,0,0,0,0,0.1583,0.1579,0.1578,0.1575,0.1579,0.1573,0.1577,0.1578,0.1582,0.1585,0.1574,0.1574,0.1595,0.1588,0.157,0.1609,0.1583,0.1586,0.1613,0.162,0.1626,0.1621,0.1544,0,0,0,0,0,0.1585,0.1585,0.1583,0.1584,0.1585,0.1584,0.1587,0.1588,0.159,0.1592,0.159,0.1596,0.1606,0.1611,0.1613,0.1631,0.1634,0.1647,0.1653,0.1659,0.1656,0.1697,0.1707,0.1605,0.1605,0.1605,0,0,0.159,0.1586,0.1588,0.1585,0.1586,0.1592,0.1585,0.1593,0.1605,0.1591,0.1608,0.1613,0.1615,0.1638,0.1647,0.1635,0.1689,0.1663,0.1667,0.1661,0.1702,0.1712,0.172,0.1607,0.1607,0.1607,0,0,0.1596,0.1592,0.1594,0.1598,0.1604,0.1605,0.1612,0.1615,0.1622,0.1641,0.164,0.1662,0.167,0.168,0.1686,0.1729,0.1719,0.1734,0.1761,0.1802,0.1811,0.1818,0.1831,0.1839,0.1739,0.1739,0.1739,0,0.1602,0.1598,0.1598,0.16,0.1607,0.1613,0.1621,0.1631,0.1643,0.1655,0.1654,0.169,0.1691,0.1724,0.1742,0.1742,0.1755,0.173,0.181,0.1817,0.1824,0.1835,0.1844,0.1742,0.1741,0.1741,0.1741,0,0.1604,0.1608,0.161,0.1615,0.1624,0.1632,0.1646,0.1665,0.1679,0.1689,0.1728,0.174,0.1762,0.1773,0.1768,0.1821,0.1811,0.1811,0.1788,0.1837,0.1845,0.1854,0.1745,0.1744,0.1744,0.1743,0,0,0.1599,0.1609,0.1612,0.1616,0.1632,0.1637,0.1667,0.169,0.1715,0.1739,0.1775,0.1803,0.1815,0.1823,0.1831,0.1865,0.1925,0.1862,0.1863,0.1868,0.2002,0.1915,0.1915,0.1944,0.1946,0.1948,0.1987,0,0.16,0.1605,0.1615,0.1631,0.1634,0.1656,0.1682,0.171,0.1739,0.1778,0.1808,0.1842,0.1834,0.1857,0.1891,0.192,0.1949,0.1913,0.1959,0.1959,0.1871,0.1923,0.174,0.1753,0.1995,0.1996,0.1997,0,0.1592,0.1598,0.1609,0.1634,0.1639,0.1655,0.1698,0.1725,0.1782,0.1812,0.1857,0.1878,0.1932,0.1923,0.1993,0.1973,0.1989,0.2006,0.2008,0.1914,0.1887,0.1745,0.1758,0.201,0.2009,0.2008,0.2008,0,0.1572,0.1592,0.16,0.1607,0.1638,0.1657,0.1682,0.1733,0.1764,0.184,0.1877,0.1934,0.1977,0.2015,0.2041,0.203,0.2111,0.21,0.2031,0.2025,0.1869,0.1845,0.2149,0.2149,0.2149,0.2148,0.2148,0,0.1554,0.1566,0.1592,0.1595,0.1617,0.1647,0.1685,0.1726,0.179,0.183,0.1893,0.1932,0.2007,0.2053,0.2066,0.2069,0.2134,0.2039,0.2036,0.1877,0.1855,0.2076,0.2067,0.215,0.215,0.2149,0.2149,0,0.1527,0.1546,0.1559,0.1593,0.1605,0.1623,0.1678,0.1707,0.178,0.1841,0.1869,0.1953,0.2009,0.2059,0.2124,0.2094,0.211,0.2092,0.1885,0.1856,0.1987,0.198,0.202,0.2017,0.2015,0.2013,0.2012,0,0.1511,0.151,0.1546,0.1556,0.1571,0.1605,0.1626,0.1695,0.1726,0.1836,0.1856,0.1939,0.1962,0.2017,0.1991,0.1992,0.2068,0.1821,0.176,0.1984,0.1978,0.1974,0.197,0.1573,0.1568,0.1564,0.1561,0,0.1481,0.1497,0.151,0.1524,0.1545,0.1563,0.1598,0.1619,0.1703,0.1742,0.1786,0.1813,0.1863,0.1771,0.1781,0.1757,0.1804,0.1734,0.2047,0.1627,0.1565,0.1558,0.1568,0.1524,0.1528,0.1531,0.1533,0.1534,0.1464,0.1462,0.1477,0.1483,0.1507,0.1505,0.1494,0.1527,0.1545,0.1577,0.1656,0.1636,0.1648,0.1553,0.1494,0.1448,0.1582,0.1504,0.1517,0.1534,0.1468,0.1404,0.1321,0.1323,0.1325,0.1327,0.1329,0,0.1423,0.1424,0.1429,0.1428,0.1416,0.1453,0.1458,0.1419,0.1391,0.1435,0.1441,0.1302,0.1228,0.1253,0.1111,0.109,0.1081,0.1048,0.1026,0.1063,0.1095,0.1007,0.0738,0.0736,0.0734,0.0733,0,0,0.1408,0.1391,0.1379,0.1333,0.1332,0.1289,0.1274,0.1218,0.1211,0.1148,0.1117,0.1202,0.1221,0.0983,0.0928,0.0812,0.0939,0.0771,0.1244,0.1256,0.1287,0.1352,0.1257,0,0,0,0,0]},{"header":{"parameterUnit":"m.s-1","parameterCategory":2,"la1":30.2991,"la2":30.254,"lo1":-89.0895,"lo2":-89.0444,"dy":0.0017,"dx":0.0017,"nx":28,"ny":28,"refTime":"2025-01-28T09:00:00:Z","depth":"2","parameterNumber":3,"parameterNumberName":"V-component_of_CURRENTS"},"data":[0,0,0,0,0,0,0,0,0,0,0,0,0,0,0,0,0,0,0,0,0,0,0,0,0,0,0,0,0,0,0,0,0,0,0,0,0,0,0,0,0,0,0,0,0,0,0,0,0,0,0,0,0,0,0,0,0,0,0.0107,0.0107,0,0.0113,0.0113,0.0113,0.011,0.011,0.011,0.011,0.0118,0.0118,0.0118,0,0,0,0,0,0,0,0,0,0,0,0,0,0.0094,0.0094,0.0107,0.0107,0.0107,0.0113,0.0113,0.0113,0.011,0.011,0.011,0.011,0.0118,0.0118,0.0118,0,0,0,0,0,0,0,0,0,0,0,0,0,0.01,0.0094,0.0107,0.0107,0.0107,0.0112,0.0113,0.0113,0.011,0.011,0.011,0.011,0.0117,0.0118,0.0119,0.0127,0,0,0.012,0.012,0,0,0,0,0,0,0,0,0.01,0.01,0.0107,0.0107,0.0107,0.011,0.0111,0.0117,0.011,0.0109,0.011,0.011,0.0115,0.0116,0.0118,0.0127,0.0127,0.012,0.0121,0.0121,0.0121,0,0,0,0,0,0,0,0.0099,0.01,0.011,0.0107,0.0107,0.0105,0.0106,0.0112,0.0114,0.0109,0.0109,0.0109,0.0115,0.0118,0.0118,0.0128,0.012,0.0121,0.0121,0.0121,0.0138,0.0138,0,0,0,0,0,0,0.0098,0.01,0.011,0.011,0.0102,0.0106,0.0107,0.011,0.0114,0.0114,0.0109,0.0109,0.0117,0.0118,0.0119,0.0134,0.0121,0.0121,0.0122,0.0138,0.0138,0.0138,0,0,0,0,0,0,0.0098,0.0099,0.0109,0.0104,0.0106,0.0106,0.011,0.011,0.0111,0.0114,0.0114,0.011,0.0117,0.0118,0.0125,0.0134,0.0122,0.0122,0.0138,0.0138,0.0138,0.0163,0,0,0,0,0,0,0.0098,0.0099,0.0101,0.0105,0.0106,0.0116,0.011,0.011,0.0111,0.0111,0.0115,0.0115,0.0117,0.0124,0.0126,0.0135,0.0122,0.0137,0.0138,0.0138,0.0162,0.0164,0.0165,0,0,0,0,0,0.0097,0.0104,0.0101,0.0102,0.0108,0.0116,0.0117,0.0116,0.0111,0.0115,0.0117,0.0115,0.0126,0.0125,0.0127,0.0136,0.0137,0.0138,0.0138,0.0161,0.0163,0.0165,0,0,0,0,0,0,0.0099,0.0104,0.0101,0.0108,0.0111,0.0115,0.0119,0.0117,0.012,0.012,0.0119,0.0121,0.013,0.0128,0.0126,0.014,0.013,0.0131,0.0147,0.015,0.0151,0.016,0.0123,0,0,0,0,0,0.01,0.0105,0.0108,0.0114,0.0116,0.0116,0.0118,0.0119,0.0123,0.0124,0.0125,0.0127,0.0132,0.0136,0.014,0.015,0.0145,0.0155,0.0157,0.0158,0.0166,0.0168,0.0171,0.0139,0.0139,0.0139,0,0,0.0101,0.0105,0.0107,0.0114,0.0116,0.0129,0.0117,0.0124,0.0136,0.0125,0.0139,0.0134,0.0136,0.0147,0.0151,0.0147,0.0162,0.0159,0.016,0.0167,0.0168,0.0172,0.0174,0.0139,0.0139,0.0139,0,0,0.0111,0.0111,0.012,0.0127,0.0132,0.0136,0.0138,0.0142,0.0145,0.0156,0.015,0.0152,0.0159,0.0164,0.0167,0.018,0.0171,0.0177,0.0197,0.0198,0.0201,0.0204,0.0192,0.0193,0.0179,0.0179,0.0179,0,0.0113,0.0128,0.0124,0.0138,0.0149,0.0141,0.0159,0.0163,0.0168,0.0177,0.0164,0.0175,0.017,0.0191,0.0191,0.0186,0.0179,0.019,0.0202,0.0204,0.0206,0.0194,0.0195,0.018,0.018,0.018,0.018,0,0.0135,0.0147,0.0154,0.0172,0.0181,0.0195,0.0201,0.0208,0.0207,0.0211,0.0224,0.0214,0.0222,0.0216,0.0208,0.0222,0.0208,0.0203,0.0198,0.0211,0.0197,0.0198,0.0182,0.0181,0.0181,0.0181,0,0,0.0142,0.0166,0.0169,0.0187,0.0202,0.0216,0.0235,0.0256,0.0276,0.0267,0.0293,0.0284,0.0272,0.0274,0.0259,0.0255,0.0254,0.0235,0.0234,0.0227,0.0248,0.0231,0.023,0.0251,0.0251,0.0252,0.0228,0,0.0163,0.0198,0.0205,0.0242,0.0263,0.0268,0.0291,0.0307,0.0314,0.0334,0.0321,0.0337,0.0297,0.0301,0.0289,0.027,0.0259,0.026,0.0233,0.0232,0.022,0.0232,0.0243,0.0223,0.0229,0.0229,0.0229,0,0.0187,0.021,0.0248,0.0288,0.0299,0.0319,0.0359,0.038,0.0401,0.0407,0.0409,0.0399,0.0394,0.0357,0.0323,0.0325,0.0287,0.0263,0.0261,0.0242,0.0218,0.0213,0.0224,0.023,0.023,0.023,0.023,0,0.0203,0.0243,0.0277,0.029,0.033,0.0352,0.0375,0.0403,0.0436,0.0457,0.0482,0.0461,0.0467,0.0417,0.0355,0.0343,0.0315,0.0295,0.0241,0.0239,0.0241,0.0239,0.0269,0.0269,0.0269,0.0269,0.0269,0,0.0229,0.0256,0.0288,0.0309,0.0361,0.0377,0.0434,0.0452,0.0493,0.0548,0.0521,0.0552,0.0483,0.0456,0.0383,0.0316,0.0335,0.0249,0.0237,0.0248,0.0246,0.0249,0.0247,0.0268,0.0268,0.0269,0.0269,0,0.0241,0.026,0.0305,0.035,0.037,0.0407,0.0478,0.0523,0.0551,0.0621,0.0634,0.063,0.0596,0.0516,0.0444,0.0365,0.0297,0.0265,0.0274,0.0264,0.0208,0.0207,0.0205,0.0204,0.0204,0.0203,0.0203,0,0.0251,0.0273,0.0333,0.0369,0.0392,0.0451,0.0501,0.0547,0.0604,0.0673,0.0715,0.0702,0.0701,0.0578,0.0451,0.0327,0.0303,0.0242,0.0219,0.0215,0.0204,0.0204,0.0204,0.0226,0.0226,0.0226,0.0225,0,0.0272,0.0291,0.0329,0.0399,0.0455,0.0527,0.0601,0.0655,0.0725,0.0779,0.0841,0.0843,0.0738,0.0621,0.0449,0.0357,0.0261,0.0235,0.0246,0.0239,0.0233,0.0222,0.0222,0.0224,0.0224,0.0224,0.0225,0.0225,0.0289,0.0319,0.037,0.0439,0.0506,0.0595,0.0661,0.0741,0.0831,0.0917,0.0918,0.0913,0.0787,0.0564,0.0422,0.0261,0.0265,0.0194,0.0195,0.0197,0.0203,0.0196,0.018,0.018,0.018,0.018,0.018,0,0.0314,0.035,0.0411,0.0495,0.0569,0.0604,0.0726,0.0791,0.0894,0.0953,0.0992,0.0858,0.0736,0.0581,0.0354,0.0218,0.0204,0.0161,0.0181,0.0183,0.0185,0.0191,0.0165,0.0164,0.0164,0.0163,0,0,0.0328,0.0383,0.0414,0.0531,0.0594,0.0699,0.0771,0.0861,0.0924,0.097,0.0962,0.095,0.0775,0.0604,0.043,0.0301,0.0267,0.0265,0.0291,0.0339,0.0342,0.0219,0.0232,0,0,0,0,0]}],[{"header":{"parameterUnit":"m.s-1","parameterCategory":2,"la1":30.2991,"la2":30.254,"lo1":-89.0895,"lo2":-89.0444,"dy":0.0017,"dx":0.0017,"nx":28,"ny":28,"refTime":"2025-01-28T09:00:00:Z","depth":"4","parameterNumber":2,"parameterNumberName":"U-component_of_CURRENTS"},"data":[0,0,0,0,0,0,0,0,0,0,0,0,0,0,0,0,0,0,0,0,0,0,0,0,0,0,0,0,0,0,0,0,0,0,0,0,0,0,0,0,0,0,0,0,0,0,0,0,0,0,0,0,0,0,0,0,0,0,0.0873,0.0873,0,0.0899,0.0899,0.0899,0.0921,0.0921,0.0922,0.0922,0.0938,0.0938,0.0938,0,0,0,0,0,0,0,0,0,0,0,0,0,0.0826,0.0827,0.0873,0.0874,0.0874,0.0899,0.0899,0.0899,0.0921,0.0921,0.0922,0.0922,0.0938,0.0938,0.0938,0,0,0,0,0,0,0,0,0,0,0,0,0,0.0847,0.0827,0.0873,0.089,0.0892,0.0899,0.0899,0.0899,0.0921,0.0921,0.0922,0.0923,0.0938,0.0938,0.0938,0.0924,0,0,0.0937,0.0937,0,0,0,0,0,0,0,0,0.0845,0.0848,0.0887,0.0889,0.0891,0.0909,0.0888,0.0908,0.092,0.0907,0.0922,0.0923,0.0928,0.0929,0.0929,0.0924,0.0925,0.0937,0.0937,0.0937,0.0937,0,0,0,0,0,0,0,0.0844,0.0847,0.0881,0.0887,0.089,0.0891,0.0894,0.0892,0.0911,0.0908,0.091,0.0917,0.0929,0.0929,0.093,0.0925,0.0937,0.0937,0.0937,0.0937,0.0974,0.0975,0,0,0,0,0,0,0.0846,0.0846,0.088,0.0882,0.0872,0.0891,0.0895,0.0901,0.0912,0.0915,0.0916,0.0918,0.0929,0.093,0.093,0.0972,0.0937,0.0937,0.0937,0.0973,0.0974,0.0976,0,0,0,0,0,0,0.0845,0.0849,0.0879,0.0866,0.0871,0.0892,0.0898,0.0901,0.0922,0.0918,0.0921,0.0937,0.0929,0.093,0.0948,0.0971,0.0937,0.0937,0.0972,0.0974,0.0975,0.1019,0,0,0,0,0,0,0.0843,0.0848,0.086,0.0866,0.0871,0.0896,0.0897,0.0901,0.0925,0.0928,0.0937,0.0938,0.093,0.0948,0.0948,0.097,0.0937,0.0971,0.0973,0.0975,0.1017,0.1022,0.1027,0,0,0,0,0,0.0841,0.0851,0.086,0.0865,0.0885,0.0897,0.0899,0.0914,0.0926,0.0936,0.0946,0.0939,0.096,0.0949,0.0948,0.0971,0.097,0.0972,0.0974,0.1014,0.1021,0.1027,0,0,0,0,0,0,0.0836,0.0855,0.0865,0.0881,0.0895,0.0902,0.0917,0.0926,0.0942,0.0952,0.0947,0.0948,0.0974,0.0966,0.0953,0.0988,0.0965,0.0968,0.0996,0.1002,0.1007,0.101,0.0937,0,0,0,0,0,0.0841,0.0856,0.0871,0.0886,0.0897,0.0911,0.0922,0.0933,0.0945,0.0954,0.0961,0.097,0.0978,0.0986,0.0989,0.1004,0.1007,0.1021,0.1026,0.103,0.1033,0.1065,0.1073,0.0983,0.0983,0.0983,0,0,0.0842,0.0857,0.0864,0.0887,0.0901,0.0916,0.092,0.0943,0.0959,0.0952,0.0981,0.0989,0.0987,0.1007,0.1018,0.1006,0.1057,0.1033,0.1037,0.1037,0.1068,0.1077,0.1085,0.0984,0.0984,0.0984,0,0,0.0848,0.0868,0.0883,0.0897,0.0926,0.0934,0.0946,0.0967,0.0983,0.1007,0.1009,0.1032,0.1043,0.1048,0.105,0.1085,0.1084,0.1092,0.112,0.1151,0.1159,0.1166,0.1179,0.1187,0.1094,0.1095,0.1095,0,0.0853,0.087,0.0889,0.0907,0.0921,0.0945,0.0961,0.0977,0.1002,0.1017,0.1024,0.106,0.1061,0.1085,0.1101,0.1097,0.1111,0.1096,0.1159,0.1165,0.1172,0.1183,0.1191,0.1097,0.1097,0.1096,0.1096,0,0.0863,0.0885,0.0897,0.0927,0.0944,0.0963,0.0987,0.1011,0.1037,0.1053,0.1095,0.1104,0.1126,0.1134,0.1128,0.1174,0.1169,0.1162,0.1143,0.1183,0.1193,0.12,0.11,0.11,0.1099,0.1098,0,0,0.0854,0.0896,0.0903,0.0919,0.0957,0.0968,0.1002,0.1033,0.1061,0.1096,0.1133,0.1158,0.1177,0.1181,0.1186,0.1214,0.1269,0.1214,0.1214,0.1226,0.1337,0.1224,0.1221,0.1283,0.1285,0.1286,0.1325,0,0.086,0.0891,0.0912,0.0942,0.0959,0.099,0.1016,0.105,0.1085,0.1128,0.1157,0.1197,0.1191,0.1217,0.1244,0.1267,0.1292,0.1259,0.1296,0.1296,0.1191,0.1227,0.1291,0.133,0.1332,0.1333,0.1334,0,0.086,0.0883,0.0913,0.0951,0.0963,0.0988,0.1037,0.1065,0.1125,0.1157,0.1205,0.1234,0.1285,0.1277,0.1336,0.1321,0.1334,0.1346,0.1348,0.1231,0.1197,0.1282,0.1347,0.1346,0.1345,0.1344,0.1344,0,0.0835,0.088,0.0904,0.0918,0.0967,0.0992,0.1024,0.108,0.1111,0.1189,0.1227,0.1284,0.1326,0.136,0.1383,0.1376,0.144,0.1429,0.1335,0.1327,0.1397,0.139,0.1469,0.1469,0.1469,0.1469,0.1469,0,0.0821,0.0844,0.09,0.0913,0.0947,0.0988,0.1034,0.1076,0.1142,0.1179,0.1248,0.1284,0.1355,0.1394,0.1406,0.1386,0.1459,0.1342,0.1332,0.1414,0.1408,0.1402,0.1394,0.1471,0.147,0.147,0.147,0,0.0789,0.0826,0.0858,0.0917,0.0938,0.0966,0.1036,0.1063,0.1139,0.1194,0.1226,0.1308,0.1356,0.1399,0.1452,0.1401,0.1403,0.1376,0.1458,0.1451,0.1264,0.1258,0.1278,0.1274,0.1271,0.1269,0.1267,0,0.0771,0.0787,0.0855,0.0874,0.0907,0.0955,0.0983,0.1056,0.1083,0.1189,0.1204,0.1287,0.1328,0.1313,0.1363,0.1369,0.1349,0.1332,0.1297,0.1258,0.1247,0.1245,0.1243,0.1262,0.1261,0.126,0.1259,0,0.0738,0.0775,0.08,0.0842,0.0876,0.0904,0.0952,0.0964,0.1043,0.1126,0.1154,0.1177,0.1221,0.1249,0.1258,0.126,0.1335,0.13,0.1306,0.1273,0.1239,0.123,0.1232,0.1249,0.125,0.1251,0.1252,0,0.0717,0.0726,0.0766,0.0793,0.0832,0.0836,0.0869,0.0895,0.0931,0.104,0.1046,0.1131,0.1209,0.1192,0.1204,0.1193,0.1172,0.1121,0.1136,0.1148,0.1084,0.1019,0.0956,0,0,0,0,0,0.069,0.0689,0.071,0.0729,0.0762,0.0783,0.0835,0.0869,0.0947,0.0935,0.0986,0.102,0.1039,0.1082,0.1045,0.1141,0.1175,0.109,0.1123,0.119,0.1202,0.1137,0,0,0,0,0,0,0.0669,0.0688,0.0688,0.0667,0.0667,0.0689,0.0718,0.0772,0.0768,0.0858,0.0879,0.0944,0.0986,0.1054,0.1025,0.1035,0.1027,0.1141,0.1137,0.1183,0.1194,0.1204,0.1141,0,0,0,0,0]},{"header":{"parameterUnit":"m.s-1","parameterCategory":2,"la1":30.2991,"la2":30.254,"lo1":-89.0895,"lo2":-89.0444,"dy":0.0017,"dx":0.0017,"nx":28,"ny":28,"refTime":"2025-01-28T09:00:00:Z","depth":"4","parameterNumber":3,"parameterNumberName":"V-component_of_CURRENTS"},"data":[0,0,0,0,0,0,0,0,0,0,0,0,0,0,0,0,0,0,0,0,0,0,0,0,0,0,0,0,0,0,0,0,0,0,0,0,0,0,0,0,0,0,0,0,0,0,0,0,0,0,0,0,0,0,0,0,0,0,0.0135,0.0135,0,0.014,0.0141,0.0141,0.0145,0.0145,0.0145,0.0145,0.0163,0.0164,0.0164,0,0,0,0,0,0,0,0,0,0,0,0,0,0.0126,0.0126,0.0135,0.0135,0.0135,0.014,0.0141,0.0141,0.0145,0.0145,0.0145,0.0145,0.0163,0.0164,0.0164,0,0,0,0,0,0,0,0,0,0,0,0,0,0.0131,0.0127,0.0135,0.0137,0.0137,0.014,0.0141,0.0141,0.0145,0.0145,0.0145,0.0145,0.0163,0.0164,0.0164,0.017,0,0,0.0167,0.0167,0,0,0,0,0,0,0,0,0.0131,0.0132,0.0136,0.0137,0.0137,0.0141,0.0144,0.0151,0.0145,0.0142,0.0145,0.0145,0.0157,0.0158,0.016,0.0171,0.0172,0.0167,0.0167,0.0168,0.0168,0,0,0,0,0,0,0,0.0131,0.0132,0.0138,0.0136,0.0137,0.0137,0.0138,0.0146,0.0151,0.0143,0.0143,0.0142,0.0157,0.0159,0.016,0.0172,0.0167,0.0168,0.0168,0.0168,0.0193,0.0193,0,0,0,0,0,0,0.0129,0.0131,0.0137,0.0138,0.0133,0.0137,0.0138,0.014,0.015,0.0151,0.0142,0.0143,0.0158,0.0159,0.0161,0.0179,0.0168,0.0168,0.0169,0.0193,0.0193,0.0193,0,0,0,0,0,0,0.0129,0.0129,0.0137,0.0134,0.0135,0.0138,0.014,0.0141,0.0144,0.015,0.0151,0.0145,0.0158,0.016,0.0171,0.018,0.0169,0.0169,0.0192,0.0193,0.0193,0.0209,0,0,0,0,0,0,0.0128,0.0129,0.0131,0.0134,0.0135,0.0142,0.014,0.0141,0.0143,0.0144,0.0153,0.0154,0.0158,0.017,0.0172,0.0181,0.017,0.0192,0.0193,0.0193,0.0208,0.021,0.0211,0,0,0,0,0,0.0128,0.0133,0.0131,0.0132,0.0137,0.0142,0.0143,0.0145,0.0143,0.0147,0.0153,0.0154,0.0173,0.0171,0.0173,0.0182,0.0192,0.0192,0.0193,0.0208,0.021,0.0211,0,0,0,0,0,0,0.0131,0.0134,0.0132,0.0137,0.014,0.0142,0.0146,0.0146,0.0153,0.0155,0.0159,0.0161,0.0173,0.0174,0.0171,0.0189,0.0182,0.0183,0.0192,0.0194,0.0196,0.0199,0.0171,0,0,0,0,0,0.0132,0.0136,0.0137,0.0141,0.0142,0.0144,0.0146,0.0148,0.0153,0.0156,0.0162,0.0168,0.0176,0.0182,0.0189,0.02,0.019,0.0206,0.0208,0.0209,0.0212,0.0202,0.0203,0.0194,0.0194,0.0194,0,0,0.0134,0.0135,0.0138,0.0142,0.0143,0.0152,0.0145,0.0151,0.0161,0.0157,0.0174,0.0174,0.018,0.0193,0.0199,0.0196,0.0204,0.0209,0.0211,0.0213,0.0203,0.0204,0.0205,0.0195,0.0195,0.0195,0,0,0.0141,0.0141,0.0147,0.0152,0.0156,0.0159,0.016,0.0165,0.017,0.0183,0.0182,0.0187,0.0201,0.0206,0.0211,0.0223,0.0211,0.0224,0.0237,0.0227,0.0228,0.0228,0.0207,0.0205,0.0226,0.0226,0.0226,0,0.0143,0.0153,0.015,0.0159,0.0167,0.0163,0.0176,0.0181,0.0189,0.0197,0.0191,0.0205,0.0208,0.0224,0.0228,0.0228,0.0214,0.0231,0.0229,0.0229,0.0229,0.0208,0.0206,0.0227,0.0227,0.0227,0.0226,0,0.0156,0.0166,0.017,0.0182,0.0189,0.02,0.0207,0.0215,0.0218,0.0223,0.0235,0.0233,0.0242,0.0241,0.024,0.0246,0.0233,0.0231,0.0225,0.0231,0.0208,0.0205,0.0228,0.0228,0.0227,0.0227,0,0,0.0158,0.0177,0.0179,0.0193,0.0205,0.0215,0.0232,0.0249,0.0264,0.0262,0.0279,0.0282,0.0274,0.0278,0.0271,0.0262,0.0247,0.0248,0.0247,0.0227,0.0215,0.0199,0.0195,0.0244,0.0244,0.0244,0.0195,0,0.0171,0.0195,0.0201,0.0229,0.0244,0.0252,0.0272,0.0286,0.0292,0.0306,0.0298,0.0311,0.029,0.0295,0.028,0.0262,0.0244,0.026,0.0212,0.021,0.0196,0.0193,0.0244,0.0193,0.0192,0.0192,0.0192,0,0.0184,0.02,0.0228,0.0261,0.0268,0.0286,0.0317,0.0335,0.035,0.0355,0.0356,0.0348,0.034,0.0319,0.0277,0.0288,0.0252,0.0228,0.0226,0.0206,0.0191,0.0187,0.0187,0.0188,0.0188,0.0188,0.0188,0,0.019,0.0221,0.0246,0.0257,0.029,0.0309,0.033,0.0351,0.0376,0.0388,0.0402,0.0382,0.0381,0.0334,0.028,0.028,0.0225,0.022,0.0167,0.0164,0.0186,0.0187,0.0183,0.0183,0.0183,0.0183,0.0184,0,0.0202,0.0223,0.0253,0.0268,0.0308,0.0325,0.0368,0.0384,0.0413,0.0446,0.0428,0.0438,0.0385,0.0347,0.0289,0.0218,0.0228,0.0167,0.0153,0.0193,0.0194,0.0184,0.0185,0.0182,0.0182,0.0182,0.0183,0,0.0203,0.0221,0.0255,0.0295,0.0312,0.0342,0.0401,0.0432,0.0453,0.0492,0.05,0.0485,0.0436,0.0368,0.0293,0.0236,0.0168,0.0138,0.0177,0.0167,0.0109,0.0112,0.0077,0.0076,0.0075,0.0074,0.0074,0,0.0204,0.0221,0.0273,0.0301,0.0322,0.0371,0.0411,0.0449,0.0485,0.0519,0.0538,0.0507,0.0483,0.0361,0.0285,0.0165,0.0147,0.0103,0.0111,0.0109,0.01,0.0103,0.0106,0.0072,0.0072,0.0072,0.0072,0,0.0209,0.0227,0.0257,0.0313,0.0359,0.0415,0.0472,0.05,0.0547,0.0565,0.0568,0.0513,0.0455,0.036,0.0266,0.0181,0.0129,0.0095,0.0096,0.0103,0.0104,0.0096,0.01,0.0069,0.007,0.007,0.007,0,0.0213,0.0233,0.0274,0.0327,0.0384,0.0444,0.0476,0.052,0.0556,0.059,0.0585,0.0527,0.0495,0.0367,0.0282,0.0196,0.0174,0.014,0.0138,0.014,0.0172,0.0184,0.0161,0,0,0,0,0,0.0217,0.0242,0.0287,0.0347,0.0405,0.0443,0.0512,0.0542,0.0583,0.0587,0.0589,0.0534,0.0417,0.0368,0.0279,0.026,0.0154,0.0152,0.0112,0.0054,0.0057,0.0083,0,0,0,0,0,0,0.0219,0.0258,0.0283,0.0355,0.0398,0.0467,0.0514,0.0545,0.055,0.0572,0.0511,0.0495,0.0381,0.0462,0.027,0.0247,0.0205,0.0103,0.01,0.0052,0.0055,0.0058,0.0085,0,0,0,0,0]}]]